period_start,C,m1,H,J0,J1,J2,J3,J4,J5,JA,JB,JC,JD,JJ,JK,JN,#
2014-05-14 00:00:58,0.11,0.28,0.00,19.41,25.87,27.37,6.07,31.04,1013.71,2046.00,3426.30,3244.10,3521.39,350.60,327.57,4.17,0000 0000 0000 0000 000000
2014-05-14 00:01:59,0.11,0.28,0.00,19.45,25.87,27.44,6.08,31.21,1013.70,2046.00,3426.11,3244.04,3521.15,350.21,326.86,4.18,0000 0000 0000 0000 000000
2014-05-14 00:02:59,0.05,0.28,0.00,19.48,25.87,27.43,6.07,31.17,1013.70,2046.00,3426.04,3244.01,3521.05,350.36,326.78,4.18,0000 0000 0000 0000 000000
2014-05-14 00:03:59,0.01,0.28,0.00,19.48,25.88,27.46,5.92,31.13,1013.69,2046.00,3426.01,3244.00,3521.02,349.10,326.28,4.19,0000 0000 0000 0000 000000
2014-05-14 00:04:59,0.00,0.28,0.00,19.43,25.89,27.48,6.10,31.17,1013.69,2046.00,3425.97,3243.96,3520.96,350.74,327.66,4.20,0000 0000 0000 0000 000000
2014-05-14 00:06:00,0.01,0.28,0.00,19.41,25.90,27.46,6.12,31.33,1013.69,2046.00,3425.77,3243.70,3520.70,349.11,326.17,4.20,0000 0000 0000 0000 000000
2014-05-14 00:07:00,0.14,0.28,0.00,19.45,25.90,27.47,6.12,31.17,1013.69,2046.00,3425.45,3243.34,3520.32,349.50,326.49,4.21,0000 0000 0000 0000 000000
2014-05-14 00:08:00,0.15,0.28,0.00,19.47,25.90,27.49,6.08,31.00,1013.69,2046.00,3425.22,3243.16,3520.12,350.25,326.91,4.21,0000 0000 0000 0000 000000
2014-05-14 00:09:00,0.08,0.28,0.00,19.52,25.90,27.51,6.05,31.33,1013.69,2046.00,3425.08,3243.06,3520.05,349.67,326.56,4.22,0000 0000 0000 0000 000000
2014-05-14 00:10:00,0.05,0.28,0.00,19.54,25.90,27.50,6.22,31.38,1013.69,2046.00,3425.02,3243.02,3520.02,350.38,327.19,4.23,0000 0000 0000 0000 000000
2014-05-14 00:11:01,0.01,0.28,0.00,19.56,25.90,27.50,6.14,31.33,1013.69,2046.00,3424.99,3242.99,3519.99,350.62,327.41,4.23,0000 0000 0000 0000 000000
2014-05-14 00:12:01,0.01,0.28,0.00,19.55,25.90,27.50,6.11,31.13,1013.69,2046.00,3424.93,3242.95,3519.87,349.93,326.79,4.24,0000 0000 0000 0000 000000
2014-05-14 00:13:01,0.04,0.28,0.00,19.55,25.92,27.52,6.15,31.17,1013.69,2046.00,3424.66,3242.73,3519.47,350.93,327.60,4.24,0000 0000 0000 0000 000000
2014-05-14 00:14:01,0.16,0.28,0.00,19.58,25.92,27.53,6.06,31.04,1013.69,2046.00,3424.28,3242.33,3519.18,349.96,327.20,4.25,0000 0000 0000 0000 000000
2014-05-14 00:15:01,0.16,0.29,0.00,19.60,25.92,27.57,6.09,31.04,1013.69,2046.00,3424.11,3242.13,3519.06,350.71,327.45,4.25,0000 0000 0000 0000 000000
2014-05-14 00:16:02,0.07,0.29,0.00,19.58,25.92,27.56,6.09,30.96,1013.69,2046.00,3424.04,3242.05,3519.02,350.70,327.46,4.26,0000 0000 0000 0000 000000
2014-05-14 00:17:02,0.02,0.29,0.00,19.57,25.92,27.61,6.08,31.13,1013.69,2046.00,3424.01,3242.01,3519.00,350.16,327.42,4.27,0000 0000 0000 0000 000000
2014-05-14 00:18:02,0.00,0.29,0.00,19.56,25.92,27.60,6.07,31.21,1013.69,2046.00,3423.98,3241.99,3518.94,349.82,326.90,4.27,0000 0000 0000 0000 000000
2014-05-14 00:19:02,0.02,0.29,0.00,19.55,25.92,27.58,6.00,31.13,1013.69,2045.99,3423.90,3241.96,3518.61,349.33,326.27,4.28,0000 0000 0000 0000 000000
2014-05-14 00:20:03,0.05,0.29,0.00,19.52,25.94,27.56,6.17,31.21,1013.69,2045.98,3423.59,3241.76,3518.29,349.42,326.32,4.28,0000 0000 0000 0000 000000
2014-05-14 00:21:03,0.13,0.29,0.00,19.55,25.94,27.62,6.05,31.21,1013.69,2045.97,3423.27,3241.39,3518.11,349.79,326.65,4.29,0000 0000 0000 0000 000000
2014-05-14 00:22:03,0.12,0.29,0.00,19.57,25.95,27.71,5.95,30.83,1013.69,2045.97,3423.11,3241.16,3518.04,349.71,326.54,4.30,0000 0000 0000 0000 000000
2014-05-14 00:23:03,0.08,0.29,0.00,19.60,25.95,27.81,6.12,31.08,1013.69,2045.97,3423.04,3241.05,3518.01,349.43,326.61,4.30,0000 0000 0000 0000 000000
2014-05-14 00:24:04,0.02,0.29,0.00,19.62,25.95,27.87,6.11,31.25,1013.69,2045.97,3422.96,3241.02,3517.93,350.41,327.18,4.31,0000 0000 0000 0000 000000
2014-05-14 00:25:04,0.02,0.29,0.00,19.61,25.95,27.80,6.10,31.54,1013.69,2045.96,3422.59,3240.97,3517.59,349.54,326.73,4.31,0000 0000 0000 0000 000000
2014-05-14 00:26:04,0.11,0.29,0.00,19.63,25.95,27.77,6.08,31.04,1013.71,2045.94,3422.39,3240.91,3517.27,350.32,327.16,4.32,0000 0000 0000 0000 000000
2014-05-14 00:27:04,0.05,0.29,0.00,19.67,25.96,27.84,6.16,31.50,1013.69,2045.89,3422.19,3240.68,3517.10,350.32,327.36,4.32,0000 0000 0000 0000 000000
2014-05-14 00:28:04,0.06,0.29,0.00,19.67,25.97,27.83,6.07,31.17,1013.72,2045.89,3422.08,3240.45,3517.03,350.66,327.33,4.33,0000 0000 0000 0000 000000
2014-05-14 00:29:05,0.05,0.29,0.00,19.70,25.97,27.82,5.95,31.04,1013.69,2045.89,3422.03,3240.20,3517.01,349.01,325.76,4.34,0000 0000 0000 0000 000000
2014-05-14 00:30:05,0.07,0.29,0.00,19.71,25.97,27.89,5.96,30.83,1013.69,2045.92,3422.01,3240.08,3517.00,349.15,325.87,4.34,0000 0000 0000 0000 000000
2014-05-14 00:31:05,0.03,0.29,0.00,19.71,25.97,27.90,6.06,31.17,1013.69,2045.90,3422.00,3240.03,3516.97,350.29,326.93,4.35,0000 0000 0000 0000 000000
2014-05-14 00:32:06,0.00,0.29,0.00,19.68,25.97,27.85,6.04,31.21,1013.69,2045.77,3421.97,3240.01,3516.87,350.11,326.80,4.35,0000 0000 0000 0000 000000
2014-05-14 00:33:06,-0.09,0.29,0.00,19.66,25.99,27.82,6.02,31.08,1013.69,2045.79,3421.82,3240.00,3516.70,350.09,326.80,4.36,0000 0000 0000 0000 000000
2014-05-14 00:34:06,0.10,0.29,0.00,19.69,25.99,27.86,5.93,30.75,1013.69,2045.75,3421.50,3240.00,3516.35,348.27,324.92,4.37,0000 0000 0000 0000 000000
2014-05-14 00:35:06,0.04,0.29,0.00,19.73,26.00,27.87,6.17,31.04,1013.70,2045.68,3421.21,3239.99,3516.15,350.46,326.78,4.37,0000 0000 0000 0000 000000
2014-05-14 00:36:06,-0.02,0.29,0.00,19.74,26.00,27.91,6.04,31.46,1013.69,2045.57,3421.07,3239.92,3516.05,348.80,325.15,4.38,0000 0000 0000 0000 000000
2014-05-14 00:37:07,-0.02,0.29,0.00,19.74,26.00,27.95,6.16,31.04,1013.69,2045.56,3421.03,3239.83,3516.02,350.17,327.26,4.38,0000 0000 0000 0000 000000
2014-05-14 00:38:07,0.01,0.29,0.00,19.77,26.00,27.95,6.09,31.38,1013.69,2045.54,3421.00,3239.59,3516.00,349.93,326.53,4.39,0000 0000 0000 0000 000000
2014-05-14 00:39:07,0.02,0.29,0.00,19.76,26.00,27.91,5.98,31.38,1013.69,2045.47,3421.00,3239.23,3515.97,349.14,325.80,4.39,0000 0000 0000 0000 000000
2014-05-14 00:40:07,0.01,0.29,0.00,19.73,26.02,27.88,6.03,31.08,1013.69,2045.36,3420.95,3239.08,3515.83,349.31,325.94,4.40,0000 0000 0000 0000 000000
2014-05-14 00:41:07,-0.02,0.29,0.00,19.73,26.02,27.87,6.04,30.88,1013.69,2045.31,3420.68,3239.03,3515.64,349.49,326.46,4.41,0000 0000 0000 0000 000000
2014-05-14 00:42:07,0.08,0.29,0.00,19.71,26.02,27.89,5.99,30.71,1013.70,2045.33,3420.33,3239.01,3515.39,348.90,325.70,4.41,0000 0000 0000 0000 000000
2014-05-14 00:43:08,0.11,0.29,0.00,19.71,26.02,27.88,6.07,31.21,1013.69,2045.34,3420.16,3239.00,3515.19,351.33,327.64,4.42,0000 0000 0000 0000 000000
2014-05-14 00:44:08,-0.01,0.29,0.00,19.74,26.03,27.88,6.09,31.17,1013.70,2045.24,3420.07,3238.97,3515.07,349.69,326.34,4.42,0000 0000 0000 0000 000000
2014-05-14 00:45:08,-0.04,0.29,0.00,19.75,26.04,27.86,6.03,31.04,1013.70,2045.15,3420.03,3238.95,3515.03,350.03,326.64,4.43,0000 0000 0000 0000 000000
2014-05-14 00:46:08,-0.05,0.29,0.00,19.72,26.05,27.88,6.12,31.17,1013.70,2045.13,3420.00,3238.72,3514.99,349.85,326.34,4.44,0000 0000 0000 0000 000000
2014-05-14 00:47:08,0.06,0.29,0.00,19.68,26.05,27.87,6.20,31.17,1013.70,2045.13,3419.99,3238.41,3514.98,349.78,326.33,4.44,0000 0000 0000 0000 000000
2014-05-14 00:48:09,0.06,0.29,0.00,19.71,26.05,27.93,5.96,30.75,1013.71,2045.08,3419.90,3238.18,3514.91,349.73,326.77,4.45,0000 0000 0000 0000 000000
2014-05-14 00:49:09,0.04,0.29,0.00,19.73,26.05,27.89,6.07,30.92,1013.70,2045.08,3419.60,3238.07,3514.54,350.02,326.83,4.45,0000 0000 0000 0000 000000
2014-05-14 00:50:09,0.11,0.29,0.00,19.76,26.06,27.88,6.06,31.25,1013.69,2045.05,3419.38,3238.02,3514.21,349.58,326.52,4.46,0000 0000 0000 0000 000000
2014-05-14 00:51:09,0.05,0.29,0.00,19.80,26.07,27.84,6.07,31.33,1013.69,2045.04,3419.15,3238.00,3514.08,349.89,326.46,4.47,0000 0000 0000 0000 000000
2014-05-14 00:52:10,0.02,0.29,0.00,19.79,26.07,27.90,6.08,31.08,1013.69,2045.02,3419.07,3238.00,3514.03,350.46,327.00,4.47,0000 0000 0000 0000 000000
2014-05-14 00:53:10,0.01,0.29,0.00,19.78,26.07,27.96,6.10,31.13,1013.69,2045.03,3419.02,3237.97,3514.00,350.90,327.43,4.48,0000 0000 0000 0000 000000
2014-05-14 00:54:10,0.00,0.29,0.00,19.78,26.07,27.99,6.03,31.25,1013.69,2045.01,3418.99,3237.84,3513.97,349.03,325.68,4.48,0000 0000 0000 0000 000000
2014-05-14 00:55:11,0.04,0.29,0.00,19.77,26.07,27.94,6.07,31.25,1013.69,2045.01,3418.97,3237.57,3513.96,350.10,326.69,4.49,0000 0000 0000 0000 000000
2014-05-14 00:56:11,0.05,0.29,0.00,19.79,26.09,27.97,6.05,31.21,1013.69,2045.01,3418.83,3237.27,3513.67,349.74,326.33,4.49,0000 0000 0000 0000 000000
2014-05-14 00:57:11,0.13,0.30,0.00,19.81,26.10,27.97,6.10,31.46,1013.68,2045.04,3418.40,3237.10,3513.27,350.60,327.10,4.50,0000 0000 0000 0000 000000
2014-05-14 00:58:11,0.17,0.30,0.00,19.83,26.10,27.93,6.08,31.21,1013.68,2045.04,3418.15,3237.04,3513.10,349.06,325.79,4.51,0000 0000 0000 0000 000000
2014-05-14 00:59:11,0.05,0.30,0.00,19.81,26.10,27.90,6.00,31.04,1013.69,2045.03,3418.05,3237.01,3513.03,349.73,326.29,4.51,0000 0000 0000 0000 000000
2014-05-14 01:00:12,0.00,0.30,0.00,19.81,26.10,27.92,6.16,31.08,1013.69,2045.03,3418.02,3236.98,3513.01,350.79,327.38,4.52,0000 0000 0000 0000 000000
2014-05-14 01:01:12,0.02,0.30,0.00,19.79,26.11,27.95,6.06,31.25,1013.69,2045.02,3417.97,3236.81,3512.81,349.99,326.57,4.52,0000 0000 0000 0000 000000
2014-05-14 01:02:12,0.05,0.30,0.00,19.79,26.12,27.92,6.04,30.88,1013.69,2045.01,3417.73,3236.37,3512.35,350.08,326.52,4.53,0000 0000 0000 0000 000000
2014-05-14 01:03:12,0.19,0.30,0.00,19.83,26.12,27.98,6.26,31.17,1013.69,2045.00,3417.34,3236.14,3512.13,350.57,326.48,4.54,0000 0000 0000 0000 000000
2014-05-14 01:04:12,0.11,0.30,0.00,19.86,26.12,28.04,6.03,31.33,1013.69,2045.00,3417.15,3236.05,3512.05,349.69,326.34,4.54,0000 0000 0000 0000 000000
2014-05-14 01:05:13,0.04,0.30,0.00,19.90,26.12,28.04,6.07,31.08,1013.69,2045.00,3417.05,3236.01,3512.01,350.15,326.59,4.55,0000 0000 0000 0000 000000
2014-05-14 01:06:13,0.02,0.30,0.00,19.93,26.14,27.99,6.02,30.96,1013.69,2045.00,3417.02,3236.00,3512.00,349.88,326.31,4.55,0000 0000 0000 0000 000000
2014-05-14 01:07:13,0.01,0.30,0.00,19.92,26.15,27.97,6.11,31.25,1013.69,2045.00,3416.99,3235.96,3511.93,349.81,326.81,4.56,0000 0000 0000 0000 000000
2014-05-14 01:08:14,0.01,0.30,0.00,19.90,26.15,27.96,6.02,31.13,1013.69,2045.00,3416.86,3235.78,3511.46,349.49,326.08,4.56,0000 0000 0000 0000 000000
2014-05-14 01:09:14,0.12,0.30,0.00,19.86,26.15,27.97,6.11,31.04,1013.69,2045.00,3416.43,3235.45,3511.19,350.58,327.03,4.57,0000 0000 0000 0000 000000
2014-05-14 01:10:14,0.17,0.30,0.00,19.88,26.15,27.90,6.01,31.21,1013.69,2045.00,3416.17,3235.25,3511.08,349.86,326.39,4.58,0000 0000 0000 0000 000000
2014-05-14 01:11:14,0.08,0.30,0.00,19.91,26.16,27.93,6.04,31.04,1013.69,2045.00,3416.06,3235.09,3511.03,350.54,326.93,4.58,0000 0000 0000 0000 000000
2014-05-14 01:12:15,0.05,0.30,0.00,19.95,26.17,27.93,6.09,31.13,1013.68,2045.00,3416.02,3235.03,3511.01,350.08,326.46,4.59,0000 0000 0000 0000 000000
2014-05-14 01:13:15,0.02,0.30,0.00,19.96,26.17,28.06,6.11,31.21,1013.68,2045.00,3416.00,3235.01,3510.96,349.89,326.27,4.59,0000 0000 0000 0000 000000
2014-05-14 01:14:15,0.01,0.30,0.00,19.96,26.17,28.09,5.97,31.04,1013.69,2045.00,3415.97,3234.99,3510.74,350.10,326.14,4.60,0000 0000 0000 0000 000000
2014-05-14 01:15:15,0.03,0.30,0.00,19.96,26.18,28.04,6.03,31.29,1013.68,2045.00,3415.94,3234.96,3510.35,349.32,325.74,4.61,0000 0000 0000 0000 000000
2014-05-14 01:16:16,0.05,0.30,0.00,19.93,26.19,28.02,6.07,31.33,1013.69,2044.99,3415.81,3234.90,3510.12,350.09,326.50,4.61,0000 0000 0000 0000 000000
2014-05-14 01:17:16,0.05,0.30,0.00,19.90,26.20,28.02,6.16,31.33,1013.69,2044.98,3415.60,3234.72,3510.04,350.10,326.67,4.62,0000 0000 0000 0000 000000
2014-05-14 01:18:16,0.07,0.30,0.00,19.92,26.20,28.02,6.17,31.08,1013.68,2044.99,3415.30,3234.42,3510.01,350.73,326.66,4.62,0000 0000 0000 0000 000000
2014-05-14 01:19:16,0.12,0.30,0.00,19.96,26.20,27.98,6.15,31.13,1013.68,2044.98,3415.11,3234.18,3510.00,350.36,326.46,4.63,0000 0000 0000 0000 000000
2014-05-14 01:20:17,0.05,0.30,0.00,19.98,26.21,27.96,6.02,31.13,1013.69,2044.98,3415.03,3234.07,3510.00,350.16,326.84,4.63,0000 0000 0000 0000 000000
2014-05-14 01:21:17,0.04,0.31,0.00,19.98,26.22,28.00,6.04,31.00,1013.69,2044.99,3414.99,3234.02,3509.88,349.65,326.28,4.64,0000 0000 0000 0000 000000
2014-05-14 01:22:17,0.03,0.31,0.00,20.00,26.22,28.05,6.13,31.13,1013.67,2044.96,3414.98,3234.00,3509.52,348.69,325.50,4.65,0000 0000 0000 0000 000000
2014-05-14 01:23:17,0.03,0.31,0.00,20.00,26.22,28.09,6.10,31.08,1013.68,2044.96,3414.79,3234.00,3509.21,350.13,326.74,4.65,0000 0000 0000 0000 000000
2014-05-14 01:24:17,0.06,0.31,0.00,20.03,26.22,28.05,6.01,30.96,1013.66,2044.97,3414.48,3233.96,3509.07,349.48,325.93,4.66,0000 0000 0000 0000 000000
2014-05-14 01:25:18,0.08,0.31,0.00,20.00,26.23,28.13,6.10,31.46,1013.67,2044.94,3414.19,3233.66,3509.03,350.11,326.21,4.66,0000 0000 0000 0000 000000
2014-05-14 01:26:18,0.08,0.31,0.00,20.03,26.24,28.08,6.17,31.50,1013.69,2044.89,3414.07,3233.27,3508.99,349.82,326.57,4.67,0000 0000 0000 0000 000000
2014-05-14 01:27:18,0.04,0.31,0.00,20.07,26.25,28.08,6.02,31.54,1013.69,2044.76,3414.02,3233.10,3508.97,349.86,326.14,4.68,0000 0000 0000 0000 000000
2014-05-14 01:28:18,-0.08,0.31,0.00,20.03,26.25,28.05,5.95,31.29,1013.68,2044.71,3414.00,3233.03,3508.90,349.36,325.69,4.68,0000 0000 0000 0000 000000
2014-05-14 01:29:19,0.01,0.31,0.00,19.98,26.25,28.02,5.98,31.17,1013.67,2044.81,3414.00,3233.01,3508.63,348.54,325.07,4.69,0000 0000 0000 0000 000000
2014-05-14 01:30:19,0.13,0.31,0.00,19.95,26.25,28.04,6.13,30.96,1013.61,2044.79,3413.98,3233.00,3508.35,350.00,325.73,4.69,0000 0000 0000 0000 000000
2014-05-14 01:31:19,0.01,0.31,0.00,19.95,26.27,28.04,6.04,31.04,1013.55,2044.81,3413.84,3233.00,3508.14,350.11,326.67,4.70,0000 0000 0000 0000 000000
2014-05-14 01:32:19,0.07,0.31,0.00,19.99,26.27,28.04,5.96,31.29,1013.54,2044.72,3413.41,3232.99,3508.05,350.01,326.32,4.71,0000 0000 0000 0000 000000
2014-05-14 01:33:20,0.01,0.31,0.00,20.02,26.27,28.13,6.09,31.17,1013.59,2044.53,3413.15,3232.80,3508.02,349.88,326.18,4.71,0000 0000 0000 0000 000000
2014-05-14 01:34:20,-0.09,0.31,0.00,20.02,26.27,28.09,6.16,30.79,1013.59,2044.48,3413.05,3232.53,3507.98,350.74,326.97,4.72,0000 0000 0000 0000 000000
2014-05-14 01:35:20,0.05,0.31,0.00,20.03,26.28,28.07,6.25,31.29,1013.58,2044.30,3413.02,3232.26,3507.91,350.93,327.14,4.72,0000 0000 0000 0000 000000
2014-05-14 01:36:20,-0.08,0.31,0.00,20.00,26.29,28.07,6.04,31.29,1013.59,2044.28,3412.99,3232.10,3507.66,349.62,325.94,4.73,0000 0000 0000 0000 000000
2014-05-14 01:37:21,0.06,0.31,0.00,19.99,26.30,28.05,6.13,31.04,1013.56,2044.23,3412.86,3232.03,3507.32,350.45,326.73,4.73,0000 0000 0000 0000 000000
2014-05-14 01:38:21,0.02,0.31,0.00,20.03,26.30,28.10,6.16,31.00,1013.50,2044.16,3412.47,3232.01,3507.13,350.96,327.13,4.74,0000 0000 0000 0000 000000
2014-05-14 01:39:21,0.03,0.31,0.00,20.05,26.30,28.12,5.92,31.00,1013.45,2044.18,3412.20,3232.00,3507.05,348.98,325.26,4.75,0000 0000 0000 0000 000000
2014-05-14 01:40:21,0.04,0.31,0.00,20.09,26.31,28.14,6.09,31.42,1013.42,2044.11,3412.09,3231.98,3507.01,350.28,326.46,4.75,0000 0000 0000 0000 000000
2014-05-14 01:41:22,-0.03,0.31,0.00,20.12,26.32,28.15,6.25,31.25,1013.46,2044.06,3412.01,3231.79,3506.96,351.01,326.74,4.76,0000 0000 0000 0000 000000
2014-05-14 01:42:22,0.03,0.31,0.00,20.13,26.32,28.17,6.13,30.75,1013.42,2044.03,3411.99,3231.39,3506.63,350.43,326.50,4.76,0000 0000 0000 0000 000000
2014-05-14 01:43:22,0.11,0.31,0.00,20.12,26.32,28.23,6.10,31.25,1013.50,2044.05,3411.93,3231.15,3506.32,350.50,326.42,4.77,0000 0000 0000 0000 000000
2014-05-14 01:44:22,0.09,0.31,0.00,20.07,26.32,28.19,6.13,31.46,1013.47,2044.05,3411.65,3231.05,3506.11,350.85,326.98,4.78,0000 0000 0000 0000 000000
2014-05-14 01:45:22,0.09,0.31,0.00,20.00,26.34,28.12,6.05,31.00,1013.43,2044.04,3411.32,3231.02,3506.04,350.66,326.86,4.78,0000 0000 0000 0000 000000
2014-05-14 01:46:23,0.04,0.31,0.00,19.99,26.34,28.11,6.11,31.13,1013.46,2044.03,3411.12,3231.00,3506.01,350.92,327.13,4.79,0000 0000 0000 0000 000000
2014-05-14 01:47:23,0.01,0.31,0.00,20.00,26.35,28.15,6.07,31.17,1013.44,2044.02,3411.05,3230.96,3505.95,349.92,326.18,4.79,0000 0000 0000 0000 000000
2014-05-14 01:48:23,0.02,0.31,0.00,20.03,26.35,28.17,6.07,31.13,1013.35,2044.01,3411.02,3230.87,3505.84,350.02,326.22,4.80,0000 0000 0000 0000 000000
2014-05-14 01:49:23,0.02,0.31,0.00,20.05,26.35,28.16,6.11,30.88,1013.38,2044.00,3411.00,3230.77,3505.69,349.88,326.10,4.80,0000 0000 0000 0000 000000
2014-05-14 01:50:23,0.02,0.31,0.00,20.10,26.36,28.15,6.07,31.04,1013.34,2044.00,3410.97,3230.37,3505.32,349.68,325.69,4.81,0000 0000 0000 0000 000000
2014-05-14 01:51:24,0.14,0.31,0.00,20.09,26.37,28.21,6.18,31.29,1013.30,2044.00,3410.87,3230.14,3505.13,350.73,326.79,4.82,0000 0000 0000 0000 000000
2014-05-14 01:52:24,0.09,0.31,0.00,20.06,26.37,28.18,6.00,31.04,1013.28,2044.00,3410.45,3230.05,3505.05,348.42,325.54,4.82,0000 0000 0000 0000 000000
2014-05-14 01:53:24,0.07,0.31,0.00,20.03,26.37,28.18,6.14,31.04,1013.31,2044.00,3410.20,3230.01,3505.01,350.87,326.44,4.83,0000 0000 0000 0000 000000
2014-05-14 01:54:24,0.05,0.31,0.00,20.04,26.37,28.19,6.08,31.04,1013.33,2044.00,3410.07,3229.99,3504.98,350.52,326.65,4.83,0000 0000 0000 0000 000000
2014-05-14 01:55:25,0.02,0.31,0.00,20.11,26.38,28.23,6.02,30.92,1013.33,2044.00,3410.02,3229.97,3504.82,349.15,325.31,4.84,0000 0000 0000 0000 000000
2014-05-14 01:56:25,0.03,0.31,0.00,20.15,26.39,28.22,6.07,31.13,1013.35,2044.00,3410.00,3229.94,3504.66,350.07,326.12,4.85,0000 0000 0000 0000 000000
2014-05-14 01:57:25,0.02,0.31,0.00,20.18,26.40,28.21,6.13,31.38,1013.34,2044.00,3409.99,3229.88,3504.34,349.99,326.03,4.85,0000 0000 0000 0000 000000
2014-05-14 01:58:26,0.07,0.31,0.00,20.16,26.40,28.17,6.11,31.13,1013.37,2044.00,3409.96,3229.52,3504.14,349.59,325.67,4.86,0000 0000 0000 0000 000000
2014-05-14 01:59:26,0.10,0.31,0.00,20.14,26.40,28.16,6.03,31.04,1013.40,2044.00,3409.81,3229.24,3504.05,349.74,326.35,4.86,0000 0000 0000 0000 000000
2014-05-14 02:00:26,0.09,0.32,0.00,20.13,26.40,28.14,6.12,31.38,1013.34,2044.00,3409.44,3229.09,3504.02,350.37,326.48,4.87,0000 0000 0000 0000 000000
2014-05-14 02:01:26,0.07,0.32,0.00,20.15,26.42,28.20,6.04,31.17,1013.31,2044.00,3409.17,3229.03,3504.00,349.51,325.60,4.87,0000 0000 0000 0000 000000
2014-05-14 02:02:27,0.04,0.32,0.00,20.19,26.42,28.24,6.02,31.38,1013.34,2044.00,3409.06,3229.01,3504.00,349.77,325.80,4.88,0000 0000 0000 0000 000000
2014-05-14 02:03:27,0.02,0.32,0.00,20.22,26.42,28.27,6.15,31.13,1013.28,2044.00,3409.02,3229.00,3503.91,349.60,325.31,4.89,0000 0000 0000 0000 000000
2014-05-14 02:04:27,0.01,0.32,0.00,20.20,26.42,28.28,6.17,31.04,1013.37,2043.99,3409.00,3228.97,3503.67,349.84,325.86,4.89,0000 0000 0000 0000 000000
2014-05-14 02:05:27,0.03,0.32,0.00,20.19,26.43,28.32,6.07,31.04,1013.42,2043.98,3408.95,3228.96,3503.38,350.38,326.40,4.90,0000 0000 0000 0000 000000
2014-05-14 02:06:27,0.05,0.32,0.00,20.18,26.44,28.36,6.23,31.00,1013.31,2043.99,3408.76,3228.83,3503.19,350.59,326.46,4.90,0000 0000 0000 0000 000000
2014-05-14 02:07:28,0.08,0.32,0.00,20.18,26.45,28.33,5.99,30.92,1013.32,2043.99,3408.46,3228.62,3503.08,349.58,325.58,4.91,0000 0000 0000 0000 000000
2014-05-14 02:08:28,0.10,0.32,0.00,20.19,26.45,28.33,5.98,31.00,1013.31,2043.98,3408.37,3228.43,3503.03,349.02,325.37,4.92,0000 0000 0000 0000 000000
2014-05-14 02:09:28,0.05,0.32,0.00,20.20,26.45,28.36,6.07,30.63,1013.26,2043.98,3408.16,3228.20,3503.01,350.33,326.28,4.92,0000 0000 0000 0000 000000
2014-05-14 02:10:29,0.07,0.32,0.00,20.24,26.45,28.36,6.07,30.88,1013.24,2043.98,3408.08,3228.07,3502.98,349.88,326.24,4.93,0000 0000 0000 0000 000000
2014-05-14 02:11:29,0.03,0.32,0.00,20.26,26.47,28.36,6.15,30.92,1013.30,2043.97,3408.03,3228.02,3502.97,350.14,326.11,4.93,0000 0000 0000 0000 000000
2014-05-14 02:12:29,0.01,0.32,0.00,20.24,26.47,28.41,6.09,31.08,1013.26,2043.97,3408.01,3228.00,3502.84,349.58,325.54,4.94,0000 0000 0000 0000 000000
2014-05-14 02:13:29,0.01,0.32,0.00,20.23,26.47,28.43,5.99,30.75,1013.26,2043.94,3408.00,3228.00,3502.53,350.73,326.62,4.95,0000 0000 0000 0000 000000
2014-05-14 02:14:30,0.02,0.32,0.00,20.20,26.47,28.41,6.02,31.04,1013.27,2043.95,3407.95,3227.99,3502.24,349.76,325.75,4.95,0000 0000 0000 0000 000000
2014-05-14 02:15:30,0.04,0.32,0.00,20.20,26.47,28.34,6.11,30.79,1013.25,2043.91,3407.79,3227.96,3502.10,349.76,325.76,4.96,0000 0000 0000 0000 000000
2014-05-14 02:16:30,0.04,0.32,0.00,20.17,26.49,28.37,5.92,30.75,1013.25,2043.94,3407.41,3227.89,3502.03,349.08,325.31,4.96,0000 0000 0000 0000 000000
2014-05-14 02:17:31,0.10,0.32,0.00,20.18,26.50,28.30,6.08,30.96,1013.22,2043.95,3407.18,3227.67,3502.01,351.08,326.99,4.97,0000 0000 0000 0000 000000
2014-05-14 02:18:31,0.08,0.32,0.00,20.21,26.50,28.30,6.12,31.00,1013.24,2043.92,3407.08,3227.47,3502.00,350.29,326.02,4.97,0000 0000 0000 0000 000000
2014-05-14 02:19:31,0.02,0.32,0.00,20.21,26.50,28.33,6.02,31.04,1013.24,2043.88,3407.03,3227.22,3502.00,350.16,326.41,4.98,0000 0000 0000 0000 000000
2014-05-14 02:20:31,0.03,0.32,0.00,20.19,26.50,28.39,5.98,31.04,1013.22,2043.88,3407.01,3227.09,3502.00,348.88,325.39,4.99,0000 0000 0000 0000 000000
2014-05-14 02:21:32,0.01,0.32,0.00,20.22,26.50,28.36,6.11,31.13,1013.21,2043.84,3407.00,3227.03,3501.97,350.13,326.18,4.99,0000 0000 0000 0000 000000
2014-05-14 02:22:32,0.00,0.32,0.00,20.18,26.52,28.36,6.04,30.71,1013.20,2043.84,3407.00,3227.01,3501.79,349.93,325.92,5.00,0000 0000 0000 0000 000000
2014-05-14 02:23:32,-0.00,0.32,0.00,20.20,26.52,28.35,6.26,31.13,1013.20,2043.71,3406.83,3227.00,3501.45,350.37,326.44,5.00,0000 0000 0000 0000 000000
2014-05-14 02:24:32,-0.02,0.32,0.00,20.24,26.52,28.34,6.08,30.75,1013.20,2043.65,3406.76,3227.00,3501.17,349.88,325.81,5.01,0000 0000 0000 0000 000000
2014-05-14 02:25:33,-0.01,0.32,0.00,20.27,26.52,28.41,6.02,30.63,1013.20,2043.48,3406.44,3226.95,3501.06,350.08,325.90,5.02,0000 0000 0000 0000 000000
2014-05-14 02:26:33,-0.04,0.32,0.00,20.33,26.53,28.43,5.97,31.13,1013.20,2043.30,3406.16,3226.81,3501.02,349.29,325.15,5.02,0000 0000 0000 0000 000000
2014-05-14 02:27:33,-0.06,0.32,0.00,20.32,26.54,28.41,6.19,31.38,1013.20,2043.27,3406.05,3226.66,3501.00,350.68,326.12,5.03,0000 0000 0000 0000 000000
2014-05-14 02:28:33,0.01,0.32,0.00,20.29,26.55,28.41,5.97,31.04,1013.20,2043.25,3406.02,3226.45,3501.00,349.32,325.23,5.03,0000 0000 0000 0000 000000
2014-05-14 02:29:34,0.05,0.32,0.00,20.25,26.55,28.41,5.99,31.13,1013.20,2043.20,3406.00,3226.27,3500.96,349.10,325.19,5.04,0000 0000 0000 0000 000000
2014-05-14 02:30:34,0.01,0.32,0.00,20.24,26.55,28.37,6.02,31.38,1013.20,2043.12,3405.99,3226.10,3500.77,350.08,326.42,5.04,0000 0000 0000 0000 000000
2014-05-14 02:31:34,-0.01,0.32,0.00,20.22,26.55,28.38,6.07,31.08,1013.20,2043.12,3405.89,3226.03,3500.45,349.92,325.80,5.05,0000 0000 0000 0000 000000
2014-05-14 02:32:34,0.07,0.32,0.00,20.24,26.57,28.47,5.96,30.88,1013.20,2043.12,3405.50,3226.01,3500.24,349.52,324.81,5.06,0000 0000 0000 0000 000000
2014-05-14 02:33:35,0.08,0.32,0.00,20.29,26.57,28.51,6.03,31.17,1013.19,2043.09,3405.22,3226.00,3500.10,350.15,326.00,5.06,0000 0000 0000 0000 000000
2014-05-14 02:34:35,0.04,0.32,0.00,20.29,26.57,28.50,6.25,31.33,1013.19,2043.10,3405.08,3226.00,3500.03,351.31,327.07,5.07,0000 0000 0000 0000 000000
2014-05-14 02:35:35,0.03,0.32,0.00,20.31,26.57,28.48,5.99,30.83,1013.19,2043.10,3405.03,3225.99,3500.01,349.71,325.57,5.07,0000 0000 0000 0000 000000
2014-05-14 02:36:35,-0.01,0.32,0.00,20.29,26.57,28.45,5.98,30.96,1013.19,2043.06,3405.01,3225.92,3500.00,349.70,325.57,5.08,0000 0000 0000 0000 000000
2014-05-14 02:37:36,-0.01,0.32,0.00,20.27,26.57,28.45,6.04,30.75,1013.20,2043.03,3404.98,3225.68,3499.99,349.79,325.67,5.09,0000 0000 0000 0000 000000